FENGYUN 1C DEB, 30560

Orbit data source: Space-Track

FENGYUN 1C DEB, 30560 is space debris in SSO originally from a launch on Mon, 10 May 1999 UTC launched from the Taiyaun Space Center, China (TSC). Fengyun 1C debris stems from the Chinese weather satellite Fengyun-1C, which was intentionally destroyed by a Chinese anti-satellite missile in 2007. This event dramatically increased the amount of space debris, with thousands of trackable fragments posing hazards to satellites and human spaceflight. The Fengyun 1C debris cloud has become a focal point in discussions about space sustainability and the need for international regulations to prevent the creation of new debris.

Loading next visibility...
Identifier
30560, 1999-025ALA
Orbit
SSO
Country
Flag of CNCN / PRC
Related business
Manufacturer
Unknown
Mission
Spacecraft
Bus & Motor
Unknown
Mass
Unknown
Launch date (UTC)
1999-05-10 (27 years ago)
Launch vehicle
Unknown
Launch site
Taiyaun Space Center, China (TSC)
Object type
Payload
Rocket body
Debris
Shape & HBR
Unknown shape, 0.1 m
Radar Cross Section
Medium (>0.1 m² and <1 m²)

Expand to show TLE details & history
Last TLE update: 16 hours ago

TLE from 16 hours ago
0 FENGYUN 1C DEB
1 30560U 99025ALA 26256.42505584  .00000234  00000-0  12794-3 0  9998
2 30560  98.6819 248.5453 0115728 142.9036  15.1123 14.17328890 12602
Epoch: 2026-09-13T10:12Z
TLE epoch observation values (Epoch: 2026-09-13T10:12:04.824Z)
Latitude
21.385°
Longitude
-73.48498°
Altitude
756.49 km
Speed
7.52 km/s
True Right ascension
04h 47m 49s
True Declination
21° 16' 07"
Sunlit
Object was in daylight at epoch
Visualization orbit readout
Latitude
Unknown
Longitude
Unknown
Altitude
Unknown
Speed
Unknown
Apparent Right ascension
Unknown
Apparent Declination
Unknown
Sunlit
N/A
Visualization observer readout
Local Sidereal Time
18:45:08
Azimuth
Unknown
Elevation
Unknown
Doppler factor
Unknown
Orbital elements
Apogee altitude
914.997 km
Perigee altitude
748.124 km
Semi-major axis
7,209.698 km
Eccentricity
0.01157
Inclination
98.6819°
RAAN
248.5453°
Arg. of periapsis
142.9036°
True anomaly
15.46293°
Mean anomaly
15.1123°
Eccentric anomaly
15.28712°
Mean motion
3.54542 °/min
Orbital period
101.54 mins
BSTAR
0.00012794
Loading maneuver chart data...
Computing Atmospheric mass density...
Loading historical data...
Loading historical data...
Loading historical data...
Loading historical data...
Loading historical data...
Loading historical data...
Loading historical data...

Documentation

Showing up to 5 results
|